IK5WWP Weather Reports


Display with metric or nautical units.
time (UTC)temp
F
wind
direction
speed
MPH
gust
MPH
rain 1hr
in
rain 24hr
in
rain mn
in
humidity
%
barometer
mb
20260902192126 75 46 0.0 2.0 0.00 0.00 0.00 79 1016.4
20260902191226 75 0 0.0 0.0 0.00 0.00 0.00 79 1016.2
20260902190326 75 45 0.0 2.0 0.00 0.00 0.00 79 1016.1
20260902185426 76 68 0.0 2.0 0.00 0.00 0.00 77 1015.9
20260902184526 77 76 0.0 2.0 0.00 0.00 0.00 76 1015.9
20260902183626 77 36 0.0 2.0 0.00 0.00 0.00 76 1016.0
20260902182726 77 20 0.0 2.0 0.00 0.00 0.00 76 1015.9
20260902181826 78 0 0.0 0.0 0.00 0.00 0.00 75 1015.9
20260902180926 78 45 0.0 2.0 0.00 0.00 0.00 74 1016.1
20260902180026 79 48 1.0 2.0 0.00 0.00 0.00 73 1015.8
20260902175126 79 35 0.0 2.0 0.00 0.00 0.00 73 1015.8
20260902173327 80 53 1.0 4.0 0.00 0.00 0.00 71 1015.8
20260902172426 80 336 2.0 2.0 0.00 0.00 0.00 71 1015.6
20260902171526 80 46 0.0 4.0 0.00 0.00 0.00 71 1015.5
20260902170627 80 55 2.0 4.0 0.00 0.00 0.00 71 1015.3
20260902163928 81 75 0.0 4.0 0.00 0.00 0.00 69 1015.6
20260902163026 81 55 1.0 4.0 0.00 0.00 0.00 67 1015.5
20260902162142 82 51 2.0 4.0 0.00 0.00 0.00 67 1015.7
20260902161229 83 35 1.0 4.0 0.00 0.00 0.00 65 1015.8
20260902160327 83 40 2.0 4.0 0.00 0.00 0.00 64 1015.5
20260902155426 83 45 2.0 6.0 0.00 0.00 0.00 63 1015.6
20260902154526 83 49 2.0 4.0 0.00 0.00 0.00 64 1015.7
20260902153627 83 48 2.0 4.0 0.00 0.00 0.00 63 1015.8
20260902152726 83 44 2.0 6.0 0.00 0.00 0.00 62 1015.6
20260902151826 84 30 2.0 6.0 0.00 0.00 0.00 60 1015.7
20260902150026 86 54 1.0 4.0 0.00 0.00 0.00 56 1015.5
20260902145126 88 56 2.0 4.0 0.00 0.00 0.00 57 1015.6
20260902144226 87 39 2.0 4.0 0.00 0.00 0.00 59 1015.7
20260902143326 88 51 0.0 4.0 0.00 0.00 0.00 59 1015.7
20260902141526 88 93 2.0 4.0 0.00 0.00 0.00 59 1015.8
20260902140626 89 89 2.0 4.0 0.00 0.00 0.00 58 1015.7
20260902135726 88 107 2.0 4.0 0.00 0.00 0.00 58 1015.8
20260902134826 88 85 2.0 6.0 0.00 0.00 0.00 58 1015.8
20260902133927 89 73 2.0 4.0 0.00 0.00 0.00 58 1015.7
20260902133027 89 42 1.0 4.0 0.00 0.00 0.00 56 1016.0
20260902132126 87 31 1.0 2.0 0.00 0.00 0.00 55 1016.1
20260902131227 88 67 1.0 4.0 0.00 0.00 0.00 54 1016.3
20260902130326 87 45 0.0 2.0 0.00 0.00 0.00 56 1016.3
20260902125427 87 40 0.0 2.0 0.00 0.00 0.00 55 1016.1
20260902123627 89 60 2.0 4.0 0.00 0.00 0.00 52 1016.5
20260902122727 90 97 0.0 4.0 0.00 0.00 0.00 50 1016.5
20260902121827 89 92 2.0 4.0 0.00 0.00 0.00 49 1016.3
20260902120927 89 121 2.0 6.0 0.00 0.00 0.00 50 1016.6
20260902120027 89 121 2.0 4.0 0.00 0.00 0.00 51 1016.8
20260902115126 90 101 1.0 4.0 0.00 0.00 0.00 50 1017.1
20260902114227 88 116 2.0 6.0 0.00 0.00 0.00 52 1017.0
20260902113327 88 90 2.0 4.0 0.00 0.00 0.00 53 1017.0
20260902112427 88 111 0.0 4.0 0.00 0.00 0.00 54 1017.1
20260902111527 88 107 0.0 4.0 0.00 0.00 0.00 53 1017.0
20260902110627 87 100 2.0 4.0 0.00 0.00 0.00 54 1017.2
20260902104827 86 106 2.0 4.0 0.00 0.00 0.00 56 1017.5
20260902103027 86 92 1.0 4.0 0.00 0.00 0.00 55 1017.7
20260902101227 85 86 2.0 4.0 0.00 0.00 0.00 56 1017.8
20260902100327 84 99 1.0 4.0 0.00 0.00 0.00 59 1018.1
20260902095427 83 93 1.0 4.0 0.00 0.00 0.00 59 1018.3
20260902094527 83 109 2.0 6.0 0.00 0.00 0.00 58 1018.2
20260902092727 83 112 2.0 4.0 0.00 0.00 0.00 59 1018.0
20260902090927 81 104 2.0 4.0 0.00 0.00 0.00 60 1018.0
20260902085127 81 97 1.0 4.0 0.00 0.00 0.00 61 1018.2
20260902084227 81 100 1.0 2.0 0.00 0.00 0.00 61 1017.9
20260902083327 80 100 2.0 4.0 0.00 0.00 0.00 62 1017.6
20260902082428 78 104 1.0 4.0 0.00 0.00 0.00 64 1017.9
20260902081527 77 92 1.0 2.0 0.00 0.00 0.00 67 1017.9
20260902080627 75 100 0.0 2.0 0.00 0.00 0.00 68 1017.7
20260902075727 75 66 2.0 2.0 0.00 0.00 0.00 68 1017.8
20260902073927 72 68 0.0 2.0 0.00 0.00 0.00 72 1017.7
20260902072127 71 68 1.0 2.0 0.00 0.00 0.00 76 1017.6
20260902071227 71 68 0.0 2.0 0.00 0.00 0.00 76 1017.6
20260902070327 70 68 0.0 2.0 0.00 0.00 0.00 77 1017.5
20260902065427 70 51 0.0 2.0 0.00 0.00 0.00 77 1017.7
20260902064527 69 23 1.0 2.0 0.00 0.00 0.00 78 1017.5
20260902063627 68 23 0.0 2.0 0.00 0.00 0.00 79 1017.5
20260902062727 68 0 0.0 0.0 0.00 0.00 0.00 80 1017.7
20260902060027 65 0 0.0 0.0 0.00 0.00 0.00 84 1017.6
20260902055127 65 0 0.0 0.0 0.00 0.00 0.00 84 1017.6
20260902054227 65 0 0.0 0.0 0.00 0.00 0.00 84 1017.5
20260902053327 65 0 0.0 0.0 0.00 0.00 0.00 84 1017.4
20260902050628 65 0 0.0 0.0 0.00 0.00 0.00 84 1017.4
20260902045727 65 0 0.0 0.0 0.00 0.00 0.00 84 1017.2
20260902044827 65 0 0.0 0.0 0.00 0.00 0.00 84 1017.3
20260902043927 65 0 0.0 0.0 0.00 0.00 0.00 84 1017.1
20260902042127 65 0 0.0 0.0 0.00 0.00 0.00 84 1016.9
20260902041227 68 0 0.0 0.0 0.00 0.00 0.00 78 1017.0
20260902040327 68 0 0.0 0.0 0.00 0.00 0.00 78 1017.0
20260902035427 68 0 0.0 0.0 0.00 0.00 0.00 78 1016.9
20260902034527 68 0 0.0 0.0 0.00 0.00 0.00 78 1016.9
20260902033627 68 0 0.0 0.0 0.00 0.00 0.00 78 1016.9
20260902032727 68 0 0.0 0.0 0.00 0.00 0.00 78 1017.2
20260902031827 68 0 0.0 0.0 0.00 0.00 0.00 78 1017.0
20260902030027 68 0 0.0 0.0 0.00 0.00 0.00 78 1016.8
20260902025127 68 0 0.0 0.0 0.00 0.00 0.00 78 1017.1
20260902023327 68 0 0.0 0.0 0.00 0.00 0.00 78 1017.2
20260902022427 68 0 0.0 0.0 0.00 0.00 0.00 78 1017.1
20260902021528 68 0 0.0 0.0 0.00 0.00 0.00 78 1017.0
20260902015727 68 0 0.0 0.0 0.00 0.00 0.00 78 1016.9
20260902014828 68 0 0.0 0.0 0.00 0.00 0.00 78 1017.1
20260902013927 68 0 0.0 0.0 0.00 0.00 0.00 78 1016.9
20260902012127 68 0 0.0 0.0 0.00 0.00 0.00 78 1016.9
20260902011228 68 0 0.0 0.0 0.00 0.00 0.00 78 1017.0
20260902010328 68 0 0.0 0.0 0.00 0.00 0.00 78 1017.0
20260902005428 68 0 0.0 0.0 0.00 0.00 0.00 78 1017.1
20260902004527 68 0 0.0 0.0 0.00 0.00 0.00 78 1017.2
20260902003628 68 0 0.0 0.0 0.00 0.00 0.00 78 1017.2
20260902001828 68 0 0.0 0.0 0.00 0.00 0.00 78 1016.9
20260902000028 68 0 0.0 0.0 0.00 0.00 0.00 78 1017.1
20260901234228 68 1 0.0 2.0 0.00 0.00 0.00 77 1017.2
20260901233328 69 1 1.0 2.0 0.00 0.00 0.00 74 1017.3
20260901232428 69 1 1.0 2.0 0.00 0.00 0.00 71 1017.4
20260901231528 69 1 0.0 2.0 0.00 0.00 0.00 71 1017.3
20260901230628 69 354 1.0 2.0 0.00 0.00 0.00 72 1017.4
20260901225728 68 0 0.0 0.0 0.00 0.00 0.00 73 1017.3
20260901224828 69 0 0.0 0.0 0.00 0.00 0.00 75 1017.3
20260901223928 69 338 0.0 2.0 0.00 0.00 0.00 70 1017.3
20260901222128 70 337 0.0 2.0 0.00 0.00 0.00 72 1017.5
20260901221230 70 337 0.0 2.0 0.00 0.00 0.00 73 1017.7
20260901215426 70 24 1.0 4.0 0.00 0.00 0.00 67 1017.3
20260901214527 70 11 2.0 4.0 0.00 0.00 0.00 68 1017.1
20260901212727 71 12 2.0 4.0 0.00 0.00 0.00 67 1016.9
20260901211826 71 16 1.0 2.0 0.00 0.00 0.00 67 1017.2
20260901210926 71 20 0.0 4.0 0.00 0.00 0.00 68 1017.0
20260901210026 71 11 1.0 2.0 0.00 0.00 0.00 67 1016.8
20260901205126 71 14 0.0 2.0 0.00 0.00 0.00 66 1017.1
20260901202426 72 10 1.0 4.0 0.00 0.00 0.00 67 1017.0
20260901201526 72 10 2.0 4.0 0.00 0.00 0.00 67 1017.0
20260901200626 72 11 2.0 2.0 0.00 0.00 0.00 67 1017.2
20260901193926 74 21 2.0 4.0 0.00 0.00 0.00 64 1016.7
20260901193026 74 21 2.0 4.0 0.00 0.00 0.00 65 1016.5